Home > Weather > Karlstad > Past weeks

Flag for Sweden Past Weather in Karlstad, Sweden — Yesterday and Last 2 Weeks

Now
77 °F

Sunny.


Feels Like: 79 °F
Forecast: 61 / 76 °F
Wind: 2 mph from Southwest

Location: Karlstad

Current Time: Jul 23, 2016 at 11:23:42 AM

Latest Report: Jul 23, 2016 at 10:50 AM


Visibility: 10 mi

Pressure: 30.12 "Hg

Humidity: 57%

Dew Point: 61 °F

Location of KarlstadLocation

Past Weather in Karlstad — Graph

°F

Karlstad Temperature Yesterday

Maximum temperature yesterday: 81 °F (at 3:20 PM)
Minimum temperature yesterday: 54 °F (at 4:50 AM)
Average temperature yesterday: 69 °F

High & Low Weather Summary for the Past Weeks

 TemperatureHumidityPressure
High81 °F (Jul 22, 3:20 PM)100% (Jul 12, 6:20 PM)30.12 "Hg (Jul 12, 6:20 PM)
Low46 °F (Jul 18, 3:20 AM)32% (Jul 22, 5:20 PM)29.45 "Hg (Jul 11, 4:50 PM)
Average63 °F76%29.86 "Hg
* Reported Jul 8 10:20 AM — Jul 23 10:20 AM, Karlstad, Weather by CustomWeather, © 2016

Note: Actual official high and low records may vary slightly from our data, if they occured in-between our weather recording intervals... More about our weather records

Advertising

Karlstad Weather History for the Previous 24 Hours

Scroll right to see more
 ConditionsComfort  
Time TempWeatherWind HumidityBarometerVisibility
10:20 AM
Sat, Jul 23
77 °FSunny.2 mph57%30.12 "Hg10 mi
9:50 AM73 °FSunny.1 mph69%30.12 "Hg10 mi
9:20 AM73 °FMild.2 mph61%30.12 "HgN/A
8:50 AM72 °FMild.2 mph65%30.12 "HgN/A
8:20 AM70 °FMild.3 mph69%30.12 "HgN/A
7:50 AM68 °FMild.2 mph69%30.12 "HgN/A
7:20 AM66 °FMild.3 mph68%30.12 "HgN/A
6:50 AM64 °FMild.5 mph78%30.12 "HgN/A
6:20 AM64 °FMild.5 mph78%30.12 "HgN/A
5:50 AM59 °FCool.3 mph94%30.12 "HgN/A
5:20 AM55 °FCool.3 mph94%30.12 "HgN/A
4:50 AM54 °FCool.3 mph100%30.12 "HgN/A
4:20 AM55 °FCool.3 mph94%30.09 "HgN/A
3:50 AM55 °FCool.2 mph94%30.09 "HgN/A
3:20 AM55 °FCool.1 mph94%30.09 "HgN/A
2:50 AM57 °FCool.No wind94%30.12 "HgN/A
2:20 AM57 °FCool.No wind94%30.12 "HgN/A
1:50 AM57 °FCool.No wind88%30.12 "HgN/A
1:20 AM57 °FCool.No wind94%30.12 "HgN/A
12:50 AM61 °FCool.2 mph83%30.09 "HgN/A
12:20 AM59 °FCool.1 mph88%30.09 "HgN/A
11:50 PM
Fri, Jul 22
63 °FMild.2 mph73%30.09 "HgN/A
11:20 PM63 °FMild.3 mph73%30.09 "HgN/A
10:50 PM63 °FMild.3 mph77%30.09 "HgN/A
10:20 PM64 °FMild.3 mph78%30.09 "HgN/A
9:50 PM68 °FSunny.3 mph64%30.09 "Hg10 mi
9:20 PM68 °FSunny.5 mph69%30.09 "Hg10 mi
8:50 PM75 °FSunny.5 mph47%30.09 "Hg10 mi
8:20 PM77 °FSunny.5 mph44%30.09 "Hg10 mi
7:50 PM77 °FSunny.7 mph44%30.09 "Hg10 mi
7:20 PM79 °FSunny.7 mph37%30.09 "Hg10 mi
6:50 PM79 °FSunny.8 mph39%30.09 "Hg10 mi
6:20 PM81 °FSunny.7 mph34%30.09 "Hg10 mi
5:50 PM79 °FSunny.7 mph34%30.09 "Hg10 mi
5:20 PM81 °FSunny.8 mph32%30.09 "Hg10 mi
4:50 PM79 °FPassing clouds.8 mph34%30.09 "HgN/A
4:20 PM79 °FSunny.9 mph37%30.09 "Hg10 mi
3:50 PM81 °FPassing clouds.8 mph34%30.09 "HgN/A
3:20 PM81 °FPassing clouds.8 mph34%30.09 "HgN/A
2:50 PM79 °FPassing clouds.7 mph39%30.09 "HgN/A
2:20 PM79 °FPassing clouds.5 mph39%30.09 "HgN/A
1:50 PM79 °FPassing clouds.5 mph37%30.09 "HgN/A
1:20 PM79 °FPassing clouds.6 mph42%30.09 "HgN/A
12:50 PM77 °FPassing clouds.6 mph42%30.09 "HgN/A
12:20 PM77 °FPassing clouds.3 mph44%30.09 "HgN/A
11:50 AM77 °FSunny.3 mph44%30.09 "Hg10 mi
11:20 AM75 °FSunny.3 mph41%30.12 "Hg10 mi
Weather by CustomWeather, © 2016

See weather overviewHow to use our weather pages